BEIDOU-3 M6 (43208 NORAD) Tracking and Keplerian Element Data

This shows tracking and keplerian element data for the satellite.

Feedback or suggestion? Click here.




ElementValue
Catalog43208
NameBEIDOU-3 M6
Epoch Orbit2446
Epoch Day261.24205958
Epoch Year2021
RAAN120.9461
Inclination55.3616
Eccentricity0.0006675
Argument of Perigee310.1355
Mean Anonmoly222.1633
Mean Motion1.86231713
Decay Rate1.9E-07
L11 43208U 18018B 21261.24205958 .00000019 00000-0 00000+0 0 9991
L22 43208 55.3616 120.9461 0006675 310.1355 222.1633 1.86231713 24467

Live tracking and technical data element details for BEIDOU-3 M6 (NORAD 43208). BEIDOU-3 M6 can be tracked NOW for your location showing map with azimuth and elevation plus other details from your city location.

Track the satellite on the map from your city or location and see movement details for azimuth, elevation, latitude, longitude, range, height, and movement on the map or in text.







IsCatalogInMostPopularTable: catalog: 43208, numindb: 531
Update: records affected: 1



GetName: 43208 BEIDOU-3 M6

Hit Count: updated at: Sun, 26 Sep 2021 01:05:54 GMT